EW1867 Weather Reports


Display with metric or nautical units.
time (UTC)temp
F
wind
direction
speed
MPH
gust
MPH
rain 1hr
in
rain 24hr
in
rain mn
in
humidity
%
barometer
mb
20260503231438 69 133 1.0 3.0 0.00 0.00 0.00 60 1010.9
20260503230538 69 113 1.0 4.0 0.00 0.00 0.00 60 1010.8
20260503224738 69 150 1.0 4.0 0.00 0.00 0.00 61 1010.8
20260503222938 68 201 2.0 7.0 0.00 0.00 0.00 61 1010.7
20260503222038 68 201 2.0 7.0 0.00 0.00 0.00 62 1010.7
20260503221138 68 186 3.0 7.0 0.00 0.00 0.00 62 1010.7
20260503220238 67 110 3.0 7.0 0.00 0.00 0.00 63 1010.8
20260503215338 68 192 3.0 8.0 0.00 0.00 0.00 62 1010.8
20260503214438 68 211 3.0 7.0 0.00 0.00 0.00 61 1011.0
20260503213538 68 209 3.0 10.0 0.00 0.00 0.00 62 1011.0
20260503211738 68 191 2.0 7.0 0.00 0.00 0.00 61 1010.9
20260503210838 68 113 2.0 6.0 0.00 0.00 0.00 60 1010.9
20260503205938 69 153 3.0 8.0 0.00 0.00 0.00 59 1011.0
20260503205038 69 184 3.0 8.0 0.00 0.00 0.00 60 1011.2
20260503204138 70 205 3.0 6.0 0.00 0.00 0.00 59 1011.1
20260503201439 68 189 2.0 9.0 0.00 0.00 0.00 62 1011.2
20260503200539 68 184 2.0 6.0 0.00 0.00 0.00 62 1011.2
20260503195638 66 172 2.0 9.0 0.00 0.00 0.00 63 1011.5
20260503194738 67 136 2.0 4.0 0.00 0.00 0.00 63 1011.5
20260503193839 66 110 2.0 5.0 0.00 0.00 0.00 63 1011.5
20260503192938 67 141 2.0 6.0 0.00 0.00 0.00 62 1011.6
20260503192039 67 129 2.0 8.0 0.00 0.00 0.00 62 1011.5
20260503191139 67 123 2.0 7.0 0.00 0.00 0.00 64 1011.6
20260503190238 66 112 3.0 7.0 0.00 0.00 0.00 63 1011.6
20260503185339 66 107 2.0 8.0 0.00 0.00 0.00 64 1011.7
20260503184438 66 118 2.0 6.0 0.00 0.00 0.00 65 1011.7
20260503181738 64 112 2.0 7.0 0.00 0.00 0.00 69 1011.5
20260503180838 63 121 2.0 8.0 0.00 0.00 0.00 69 1011.5
20260503175938 63 116 3.0 8.0 0.00 0.00 0.00 69 1011.6
20260503175038 62 116 3.0 9.0 0.00 0.00 0.00 71 1011.6
20260503174138 62 111 2.0 9.0 0.00 0.00 0.00 71 1011.6
20260503173238 62 121 2.0 6.0 0.00 0.00 0.00 71 1011.7
20260503172338 62 136 2.0 8.0 0.00 0.00 0.00 70 1011.4
20260503171438 62 153 2.0 7.0 0.00 0.00 0.00 70 1011.4
20260503150839 56 114 2.0 4.0 0.00 0.00 0.00 82 1010.3
20260503131138 54 99 2.0 7.0 0.00 0.00 0.00 85 1009.0
20260503130238 54 101 2.0 6.0 0.00 0.00 0.00 86 1008.8
20260503110538 54 103 1.0 6.0 0.00 0.00 0.00 84 1008.9
20260503100238 55 112 1.0 3.0 0.00 0.00 0.00 84 1008.8
20260503081438 56 114 1.0 4.0 0.00 0.00 0.00 83 1009.6
20260503080538 56 114 1.0 2.0 0.00 0.00 0.00 82 1009.6
20260503072938 56 101 1.0 4.0 0.00 0.00 0.00 81 1009.7
20260503072038 56 105 0.0 3.0 0.00 0.00 0.00 81 1009.8
20260503071138 56 0 0.0 3.0 0.00 0.00 0.00 80 1009.7
20260503070238 56 125 0.0 2.0 0.00 0.00 0.00 79 1009.7
20260503053238 58 113 0.0 2.0 0.00 0.00 0.00 75 1010.2
20260503051438 59 123 0.0 3.0 0.00 0.00 0.00 74 1010.2
20260503050538 59 0 0.0 2.0 0.00 0.00 0.00 74 1010.1
20260503045638 60 119 1.0 2.0 0.00 0.00 0.00 74 1010.0
20260503044738 60 114 1.0 5.0 0.00 0.00 0.00 72 1009.9
20260503043838 60 123 1.0 4.0 0.00 0.00 0.00 72 1009.8
20260503042039 62 142 1.0 4.0 0.00 0.00 0.00 72 1009.7
20260503041138 62 117 1.0 3.0 0.00 0.00 0.00 73 1009.6
20260503040238 62 132 1.0 2.0 0.00 0.00 0.00 72 1009.5
20260503035338 63 210 0.0 3.0 0.00 0.00 0.00 71 1009.5
20260503034439 63 0 0.0 3.0 0.00 0.00 0.00 70 1009.3
20260503033539 64 0 0.0 2.0 0.00 0.00 0.00 69 1009.2
20260503032639 64 0 0.0 3.0 0.00 0.00 0.00 69 1009.2
20260503031738 64 0 0.0 2.0 0.00 0.00 0.00 68 1009.2
20260503025938 65 206 1.0 4.0 0.00 0.00 0.00 65 1009.1
20260503023238 67 196 1.0 3.0 0.00 0.00 0.00 64 1008.9
20260503021438 69 184 1.0 4.0 0.00 0.00 0.00 65 1009.0
20260503015638 69 206 2.0 4.0 0.00 0.00 0.00 63 1009.0
20260503014738 70 196 1.0 4.0 0.00 0.00 0.00 62 1008.9
20260503013838 71 211 1.0 5.0 0.00 0.00 0.00 62 1008.9
20260503012939 70 208 1.0 5.0 0.00 0.00 0.00 62 1008.8